Location: Poughquag
(41.6090°N, 73.6820°W)
Time: 20:58:18
(UTC-04:00)

CUBESAT XI-V - Pass Details

Date: 18 April 2024
Orbit: 657 x 680 km, 98.2° (Epoch: 23 May)

Event Time Altitude Azimuth Distance (km) Brightness Sun altitude
Exits shadow 02:01:07 22° 47° (NE) 1,467 ? -35.2°
Drops below altitude 10° 02:03:49 10° 14° (NNE) 2,123 ? -35.0°
Sets 02:06:23 0° 0° (N) 3,038 ? -34.8°
